Location: Fort Wayne
(41.1310°N, 85.1290°W)
Time: 10:00:35
(UTC-04:00)

Cosmos 1000 Rocket - Visible Passes

Search period start: 02 September 2014 00:00
Search period end: 12 September 2014 00:00
Orbit: 954 x 993 km, 82.9° (Epoch: 01 September)

Date Brightness Start Highest point End Pass type
(mag) Time Alt. Az. Time Alt. Az. Time Alt. Az.
02 Sep 4.7 21:09:36 10° S 21:15:54 79° W 21:22:12 10° N visible
02 Sep 7.5 23:00:10 10° W 23:02:17 12° WNW 23:04:23 10° NW visible
03 Sep 7.8 06:23:00 10° NE 06:25:23 12° ENE 06:27:45 10° E visible
03 Sep 5.7 21:34:48 10° SSW 21:40:47 45° WNW 21:46:45 10° N visible
04 Sep 6.7 22:00:44 10° SW 22:05:50 26° WNW 22:10:56 10° NNW visible
05 Sep 4.5 20:38:37 10° S 20:44:55 87° E 20:51:12 10° N visible
05 Sep 7.4 22:27:50 10° W 22:31:05 14° WNW 22:34:20 10° NNW visible
06 Sep 5.4 21:03:37 10° SSW 21:09:44 54° W 21:15:51 10° N visible
07 Sep 7.5 06:15:22 10° NNE 06:19:31 19° ENE 06:23:39 10° ESE visible
07 Sep 6.5 21:29:17 10° SW 21:34:44 31° WNW 21:40:10 10° NNW visible
08 Sep 6.6 06:39:13 10° N 06:44:41 33° ENE 06:50:06 10° SE visible
08 Sep 7.3 21:55:54 10° WSW 21:59:55 17° WNW 22:03:55 10° NNW visible
09 Sep 5.1 20:32:30 10° SSW 20:38:43 65° W 20:44:55 10° N visible
10 Sep 7.6 05:44:54 10° NNE 05:48:21 15° ENE 05:51:46 10° E visible
10 Sep 6.2 20:57:56 10° SW 21:03:39 37° WNW 21:09:21 10° N visible
11 Sep 6.8 06:08:26 10° NNE 06:13:34 27° ENE 06:18:39 10° SE visible
11 Sep 7.2 21:24:11 10° WSW 21:28:45 21° WNW 21:33:20 10° NNW visible
